Flag for New Zealand Weather past 2 weeks in Blenheim, New Zealand

Now
45 °F

Quite cool.


Feels Like: 43 °F
Forecast: 31 / 56 °F
Wind: 3 mph from North

Location: Wellington Airport

Current Time: May 26, 2015 at 6:52:09 PM

Latest Report: May 26, 2015 at 6:30 PM


Visibility: N/A

Pressure: 29.80 "Hg

Humidity: 66%

Dew point: 34 °F

Location of BlenheimLocation

Historic Weather in Blenheim — Graph

°F

Blenheim temperature yesterday

Maximum temperature yesterday: 52 °F (at 1:00 PM)
Minimum temperature yesterday: 41 °F (at 3:00 AM)
Average temperature yesterday: 48 °F

Past Weeks' High & Low Weather Summary

 TemperatureHumidityPressure
High64 °F (May 11, 9:30 PM)100% (May 15, 12:30 AM)30.21 "Hg (May 15, 12:30 AM)
Low36 °F (May 26, 6:00 AM)33% (May 26, 4:00 PM)29.24 "Hg (May 12, 1:00 PM)
Average54 °F74%29.75 "Hg
* Reported May 11 5:00 PM — May 26 5:30 PM, Blenheim, Weather by CustomWeather, © 2015

Note: Actual official high and low records may vary slightly from our data, if they occured in-between our weather recording intervals... More about our weather records

Advertising

Blenheim weather history for previous 24 hours

 ConditionsComfort  
Time TempWeatherWind HumidityBarometerVisibility
5:30 PM
Tue, May 26
50 °FHaze.2 mph58%29.80 "Hg3 mi
5:00 PM50 °FCool.3 mph47%29.80 "HgN/A
4:30 PM54 °FCool.3 mph47%29.80 "Hg4 mi
4:00 PM54 °FCool.2 mph33%29.77 "HgN/A
3:30 PM54 °FCool.2 mph35%29.77 "HgN/A
3:00 PM54 °FCool.2 mph35%29.77 "HgN/A
2:30 PM54 °FCool.6 mph41%29.80 "Hg6 mi
2:00 PM54 °FCool.7 mph41%29.80 "HgN/A
1:30 PM52 °FCool.6 mph47%29.80 "Hg5 mi
1:00 PM52 °FCool.7 mph50%29.80 "Hg4 mi
12:30 PM52 °FCool.7 mph47%29.80 "Hg5 mi
12:00 PM52 °FCool.7 mph47%29.83 "Hg4 mi
11:30 AM50 °FCool.2 mph58%29.83 "HgN/A
11:00 AM48 °FCool.5 mph62%29.83 "HgN/A
10:30 AM46 °FCool.5 mph71%29.83 "HgN/A
10:00 AM45 °FQuite cool.6 mph76%29.83 "HgN/A
9:30 AM43 °FQuite cool.6 mph76%29.83 "HgN/A
8:30 AM39 °FChilly.6 mph81%29.83 "HgN/A
8:00 AM37 °FChilly.6 mph87%29.83 "HgN/A
7:30 AM37 °FChilly.7 mph87%29.80 "HgN/A
7:00 AM36 °FChilly.6 mph87%29.80 "HgN/A
6:30 AM36 °FChilly.5 mph87%29.80 "HgN/A
6:00 AM36 °FChilly.6 mph87%29.80 "HgN/A
5:30 AM37 °FChilly.5 mph87%29.80 "HgN/A
5:00 AM37 °FChilly.5 mph87%29.77 "HgN/A
4:30 AM37 °FChilly.8 mph87%29.77 "HgN/A
4:00 AM37 °FChilly.3 mph81%29.77 "HgN/A
3:30 AM37 °FChilly.3 mph87%29.77 "HgN/A
3:00 AM37 °FChilly.5 mph81%29.77 "HgN/A
2:30 AM39 °FChilly.5 mph75%29.77 "HgN/A
2:00 AM41 °FQuite cool.5 mph70%29.77 "HgN/A
1:30 AM43 °FQuite cool.6 mph71%29.77 "HgN/A
1:00 AM48 °FCool.6 mph58%29.77 "HgN/A
12:30 AM48 °FCool.8 mph58%29.77 "HgN/A
12:00 AM48 °FCool.8 mph54%29.77 "Hg5 mi
11:30 PM
Mon, May 25
48 °FCool.8 mph54%29.77 "Hg5 mi
11:00 PM48 °FCool.7 mph62%29.77 "HgN/A
10:30 PM48 °FCool.8 mph58%29.74 "HgN/A
10:00 PM50 °FPassing clouds.15 mph50%29.74 "HgN/A
9:30 PM50 °FCool.15 mph50%29.74 "HgN/A
9:00 PM50 °FPassing clouds.17 mph50%29.74 "HgN/A
8:30 PM50 °FCool.17 mph54%29.74 "HgN/A
8:00 PM50 °FCool.18 mph50%29.71 "HgN/A
7:30 PM50 °FCool.20 mph50%29.71 "HgN/A
7:00 PM52 °FCool.20 mph47%29.71 "HgN/A
6:30 PM52 °FCool.21 mph47%29.71 "HgN/A
6:00 PM50 °FCool.20 mph50%29.68 "HgN/A
Weather by CustomWeather, © 2015

See weather overviewHow to use our weather pages